User: anonymous
Location: NJAA Observatory
(40.6819°N, 74.8979°W)
Time: 15:14:31
(UTC-04:00)
Language:

S-56A Canister/Altair - Orbit

View from above orbital plane
View from above orbital plane
View from above satellite
View from above satellite

Ground track
Ground track

The orbit data is extracted from the following two-line orbital elements,

1 00082U 61004B   14211.37235143 -.00000103  00000-0 -45669-4 0  7075
2 00082 038.8547 232.4818 1177066 155.4508 210.7177 12.25641506544078
Epoch (UTC): 30 July 2014 08:56:11
Eccentricity: 0.1177066
inclination: 38.8547°
perigee height: 633 km
apogee height: 2503 km
right ascension of ascending node: 232.4818°
argument of perigee: 155.4508°
revolutions per day: 12.25641506
mean anomaly at epoch: 210.7177°
orbit number at epoch: 54407

The dashed part of the orbit path shows where the satellite is in the earth's shadow,  

DLR